Previsão horária em Aligudarz

Hoje, 19 Junho, Sábado

Tempo Temperatura Precipitação Vento Pressão Humidade
00:00 +24°C° 0 mm 1 m/s 595 mmHg 17%
01:00 +23°C° 0 mm 2 m/s 595 mmHg 17%
02:00 +21°C° 0 mm 2 m/s 595 mmHg 18%
03:00 +21°C° 0 mm 2 m/s 595 mmHg 18%
04:00 +21°C° 0 mm 2 m/s 596 mmHg 18%
05:00 +23°C° 0 mm 2 m/s 596 mmHg 18%
06:00 +24°C° 0 mm 2 m/s 597 mmHg 18%
07:00 +26°C° 0 mm 3 m/s 598 mmHg 15%
08:00 +28°C° 0 mm 4 m/s 598 mmHg 13%
09:00 +32°C° 0 mm 5 m/s 599 mmHg 10%
10:00 +33°C° 0 mm 5 m/s 599 mmHg 10%
11:00 +35°C° 0 mm 5 m/s 599 mmHg 9%
12:00 +36°C° 0 mm 5 m/s 599 mmHg 9%
13:00 +36°C° 0 mm 5 m/s 599 mmHg 9%
14:00 +38°C° 0 mm 6 m/s 599 mmHg 8%
15:00 +38°C° 0 mm 6 m/s 598 mmHg 8%
16:00 +36°C° 0 mm 5 m/s 598 mmHg 10%
17:00 +34°C° 0 mm 5 m/s 598 mmHg 11%
18:00 +33°C° 0 mm 5 m/s 598 mmHg 13%
19:00 +30°C° 0 mm 4 m/s 597 mmHg 13%
20:00 +28°C° 0 mm 4 m/s 597 mmHg 13%
21:00 +26°C° 0 mm 3 m/s 597 mmHg 14%
22:00 +25°C° 0 mm 3 m/s 597 mmHg 15%
23:00 +24°C° 0 mm 3 m/s 597 mmHg 15%

Amanhã, 20 Junho, Domingo

Tempo Temperatura Precipitação Vento Pressão Humidade
00:00 +21°C° 0 mm 3 m/s 597 mmHg 16%
01:00 +21°C° 0 mm 3 m/s 597 mmHg 17%
02:00 +20°C° 0 mm 3 m/s 596 mmHg 18%
03:00 +19°C° 0 mm 3 m/s 596 mmHg 19%
04:00 +20°C° 0 mm 3 m/s 597 mmHg 19%
05:00 +20°C° 0 mm 3 m/s 597 mmHg 19%
06:00 +21°C° 0 mm 2 m/s 598 mmHg 19%
07:00 +25°C° 0 mm 3 m/s 598 mmHg 17%
08:00 +27°C° 0 mm 3 m/s 599 mmHg 14%
09:00 +30°C° 0 mm 3 m/s 600 mmHg 11%
10:00 +31°C° 0 mm 3 m/s 600 mmHg 10%
11:00 +34°C° 0 mm 3 m/s 600 mmHg 9%
12:00 +35°C° 0 mm 3 m/s 600 mmHg 9%
13:00 +36°C° 0 mm 4 m/s 600 mmHg 8%
14:00 +36°C° 0 mm 5 m/s 599 mmHg 8%
15:00 +36°C° 0 mm 5 m/s 599 mmHg 8%
16:00 +35°C° 0 mm 5 m/s 599 mmHg 9%
17:00 +34°C° 0 mm 4 m/s 598 mmHg 11%
18:00 +32°C° 0 mm 4 m/s 598 mmHg 12%
19:00 +29°C° 0 mm 3 m/s 598 mmHg 13%
20:00 +27°C° 0 mm 3 m/s 597 mmHg 14%
21:00 +25°C° 0 mm 2 m/s 597 mmHg 16%
22:00 +24°C° 0 mm 2 m/s 597 mmHg 17%
23:00 +23°C° 0 mm 2 m/s 596 mmHg 18%

Depois de amanhã, 21 Junho, Segunda-feira

Tempo Temperatura Precipitação Vento Pressão Humidade
00:00 +21°C° 0 mm 2 m/s 596 mmHg 19%
01:00 +20°C° 0 mm 2 m/s 596 mmHg 19%
02:00 +20°C° 0 mm 2 m/s 595 mmHg 19%
03:00 +19°C° 0 mm 2 m/s 595 mmHg 19%
04:00 +20°C° 0 mm 2 m/s 596 mmHg 19%
05:00 +21°C° 0 mm 2 m/s 597 mmHg 18%
06:00 +23°C° 0 mm 2 m/s 597 mmHg 18%
07:00 +25°C° 0 mm 2 m/s 598 mmHg 16%
08:00 +28°C° 0 mm 2 m/s 599 mmHg 13%
09:00 +30°C° 0 mm 1 m/s 599 mmHg 11%
10:00 +32°C° 0 mm 2 m/s 599 mmHg 10%
11:00 +34°C° 0 mm 3 m/s 599 mmHg 9%
12:00 +35°C° 0 mm 4 m/s 600 mmHg 8%
13:00 +35°C° 0 mm 5 m/s 599 mmHg 8%
14:00 +36°C° 0 mm 5 m/s 599 mmHg 8%
15:00 +36°C° 0 mm 6 m/s 599 mmHg 8%
16:00 +35°C° 0 mm 6 m/s 598 mmHg 9%
17:00 +33°C° 0 mm 6 m/s 598 mmHg 10%
18:00 +32°C° 0 mm 6 m/s 598 mmHg 11%
19:00 +29°C° 0 mm 5 m/s 598 mmHg 13%
20:00 +27°C° 0 mm 4 m/s 597 mmHg 14%
21:00 +25°C° 0 mm 2 m/s 597 mmHg 16%
22:00 +24°C° 0 mm 2 m/s 597 mmHg 17%
23:00 +23°C° 0 mm 2 m/s 596 mmHg 17%

22 Junho, Terça-feira

Tempo Temperatura Precipitação Vento Pressão Humidade
00:00 +21°C° 0 mm 2 m/s 596 mmHg 18%
01:00 +20°C° 0 mm 2 m/s 596 mmHg 18%
02:00 +20°C° 0 mm 2 m/s 596 mmHg 18%
03:00 +19°C° 0 mm 2 m/s 595 mmHg 19%
04:00 +20°C° 0 mm 2 m/s 596 mmHg 18%
05:00 +21°C° 0 mm 2 m/s 597 mmHg 17%
06:00 +23°C° 0 mm 2 m/s 598 mmHg 17%
07:00 +25°C° 0 mm 2 m/s 598 mmHg 14%
08:00 +27°C° 0 mm 2 m/s 599 mmHg 12%
09:00 +30°C° 0 mm 3 m/s 600 mmHg 10%
10:00 +31°C° 0 mm 3 m/s 600 mmHg 9%
11:00 +33°C° 0 mm 4 m/s 600 mmHg 8%
12:00 +34°C° 0 mm 4 m/s 600 mmHg 8%
13:00 +35°C° 0 mm 5 m/s 600 mmHg 8%
14:00 +35°C° 0 mm 6 m/s 600 mmHg 7%
15:00 +35°C° 0 mm 6 m/s 600 mmHg 7%
16:00 +34°C° 0 mm 7 m/s 599 mmHg 8%
17:00 +32°C° 0 mm 7 m/s 599 mmHg 8%
18:00 +30°C° 0 mm 7 m/s 599 mmHg 9%
19:00 +28°C° 0 mm 5 m/s 598 mmHg 10%
20:00 +25°C° 0 mm 4 m/s 598 mmHg 12%
21:00 +23°C° 0 mm 2 m/s 598 mmHg 13%
22:00 +21°C° 0 mm 2 m/s 597 mmHg 13%
23:00 +20°C° 0 mm 2 m/s 597 mmHg 13%

23 Junho, Quarta-feira

Tempo Temperatura Precipitação Vento Pressão Humidade
00:00 +20°C° 0 mm 2 m/s 597 mmHg 14%
01:00 +19°C° 0 mm 2 m/s 597 mmHg 14%
02:00 +19°C° 0 mm 2 m/s 596 mmHg 14%
03:00 +18°C° 0 mm 2 m/s 596 mmHg 14%
04:00 +19°C° 0 mm 2 m/s 597 mmHg 15%
05:00 +20°C° 0 mm 2 m/s 598 mmHg 15%
06:00 +21°C° 0 mm 2 m/s 598 mmHg 15%
07:00 +24°C° 0 mm 2 m/s 599 mmHg 13%
08:00 +27°C° 0 mm 2 m/s 600 mmHg 11%
09:00 +29°C° 0 mm 3 m/s 600 mmHg 9%
10:00 +30°C° 0 mm 3 m/s 601 mmHg 8%
11:00 +33°C° 0 mm 4 m/s 601 mmHg 8%
12:00 +34°C° 0 mm 5 m/s 601 mmHg 7%
13:00 +34°C° 0 mm 5 m/s 601 mmHg 7%
14:00 +34°C° 0 mm 4 m/s 600 mmHg 6%
15:00 +34°C° 0 mm 4 m/s 600 mmHg 6%
16:00 +33°C° 0 mm 4 m/s 600 mmHg 7%
17:00 +32°C° 0 mm 5 m/s 599 mmHg 7%
18:00 +30°C° 0 mm 5 m/s 599 mmHg 8%
19:00 +28°C° 0 mm 4 m/s 599 mmHg 9%
20:00 +25°C° 0 mm 3 m/s 598 mmHg 11%
21:00 +23°C° 0 mm 2 m/s 598 mmHg 12%
22:00 +21°C° 0 mm 2 m/s 598 mmHg 12%
23:00 +20°C° 0 mm 2 m/s 597 mmHg 13%

24 Junho, Quinta-feira

Tempo Temperatura Precipitação Vento Pressão Humidade
00:00 +19°C° 0 mm 2 m/s 597 mmHg 14%
01:00 +19°C° 0 mm 2 m/s 597 mmHg 14%
02:00 +18°C° 0 mm 2 m/s 597 mmHg 15%
03:00 +18°C° 0 mm 2 m/s 596 mmHg 16%
04:00 +19°C° 0 mm 2 m/s 597 mmHg 16%
05:00 +20°C° 0 mm 2 m/s 598 mmHg 16%
06:00 +21°C° 0 mm 2 m/s 599 mmHg 17%
07:00 +25°C° 0 mm 2 m/s 599 mmHg 14%
08:00 +27°C° 0 mm 3 m/s 600 mmHg 12%
09:00 +30°C° 0 mm 3 m/s 600 mmHg 9%
10:00 +32°C° 0 mm 4 m/s 601 mmHg 8%
11:00 +33°C° 0 mm 4 m/s 601 mmHg 8%
12:00 +34°C° 0 mm 5 m/s 601 mmHg 7%
13:00 +34°C° 0 mm 4 m/s 600 mmHg 7%
14:00 +34°C° 0 mm 4 m/s 600 mmHg 6%
15:00 +34°C° 0 mm 4 m/s 600 mmHg 6%
16:00 +33°C° 0 mm 4 m/s 599 mmHg 7%
17:00 +32°C° 0 mm 4 m/s 599 mmHg 8%
18:00 +30°C° 0 mm 4 m/s 598 mmHg 8%
19:00 +28°C° 0 mm 4 m/s 598 mmHg 10%
20:00 +26°C° 0 mm 3 m/s 598 mmHg 11%
21:00 +22°C° 0 mm 3 m/s 597 mmHg 12%
22:00 +21°C° 0 mm 2 m/s 597 mmHg 13%
23:00 +21°C° 0 mm 2 m/s 597 mmHg 14%
Mostrar mais